Regional Weather Roundup
Issued by NWS State College, PA

Home | Current Version | Previous Version | Graphics & Text | Print | Product List | Glossary On
Versions: 1 2 3 4 5 6 7 8 9 10 11 12 13 14 15 16 17 18 19 20 21 22 23 24 25 26 27 28 29 30 31 32 33 34 35 36 37 38 39 40 41 42 43 44 45 46 47 48 49 50
000
ASUS41 KCTP 181710
RWRCTP

REGIONAL WEATHER ROUNDUP
NATIONAL WEATHER SERVICE STATE COLLEGE PA
1200 PM EST MON DEC 18 2017

Note: "fair" indicates few or no clouds below 12,000 feet with no
significant weather and/or obstructions to visibility.

* = STATION THAT DOES NOT REPORT PRECIPITATION /E.G. RAIN...SNOW...ETC/
    THUNDER OR FOG.

PAZ002>004-007>009-013>016-020>023-029>032-181800-
WESTERN PENNSYLVANIA

CITY           SKY/WX    TMP DP  RH WIND       PRES   REMARKS
ERIE           CLOUDY    39  33  79 S16G24    29.94F
MEADVILLE      LGT RAIN  35  35 100 S8        29.96F FOG
FRANKLIN*      MIX PCPN  36  33  89 SW12      29.97F
NEW CASTLE     CLOUDY    39  37  92 VRB3      30.00
BEAVER COUNTY  CLOUDY    37  36  93 S6        30.00F
BUTLER*        CLOUDY    38  35  89 SW6       30.01F
PITTSBURGH INT CLOUDY    42  38  85 SW10      30.00F
PITTSBURGH     CLOUDY    40  35  83 SW8       30.01F
INDIANA*       CLOUDY    37  37 100 W6        30.05F
LATROBE        CLOUDY    41  39  93 SW9       30.04F
WASHINGTON CO* CLOUDY    41  38  89 SW7       30.05F FOG
$$

PAZ004>006-010>012-017>019-024>028-033>037-041-042-045-046-049>053-181800-
CENTRAL PENNSYLVANIA

CITY           SKY/WX    TMP DP  RH WIND       PRES   REMARKS
BRADFORD       CLOUDY    34  33  96 SW6       29.94F FOG
DUBOIS         CLOUDY    35  32  88 SW10      29.97F FOG
CLEARFIELD     CLOUDY    38  35  89 SW8       29.99F
JOHNSTOWN      CLOUDY    36  35  96 W10       29.98F FOG
ALTOONA        CLOUDY    41  36  82 SW8       30.01F
STATE COLLEGE  CLOUDY    41  34  75 SW9       30.00F
WILLIAMSPORT   CLOUDY    40  30  67 SE5       30.02F
SELINSGROVE    CLOUDY    41  32  70 S6        30.04F HAZE
FT INDIANTOWN  CLOUDY    40  33  77 S3        30.04F
CAPITAL CITY   CLOUDY    43  29  57 VRB3      30.05F
HARRISBURG     CLOUDY    41  31  67 CALM      30.05F
YORK           CLOUDY    45  35  68 CALM      30.04F
$$

PAZ038>040-043-044-047-048-054-055-060>062-067>071-181800-
EASTERN PENNSYLVANIA

CITY           SKY/WX    TMP DP  RH WIND       PRES   REMARKS
SCRANTON       CLOUDY    38  32  79 W5        30.01F HAZE
MOUNT POCONO   CLOUDY    37  31  78 W14       29.98F
ALLENTOWN      CLOUDY    40  33  76 W6        30.05F HAZE
QUAKERTOWN*    CLOUDY    39  36  87 W3        30.05F
READING        SUNNY     43  36  76 CALM      30.04F
LANCASTER      CLOUDY    43  34  70 SW3       30.05F
COATESVILLE    SUNNY     45  36  70 W5        30.05F
POTTSTOWN      SUNNY     42  35  76 VRB3      30.06F HAZE
BLUE BELL      MOSUNNY   43  34  70 SW5       30.06F
DOYLESTOWN     CLOUDY    43  34  70 NW6       30.04F
WILLOW GROVE   NOT AVBL
NORTH PHILA    CLOUDY    49  36  61 SW6       30.07F
PHILADELPHIA   PTSUNNY   45  35  68 W6        30.06F
$$



USA.gov is the U.S. government's official web portal to all federal, state and local government web resources and services.